Location: Carabito
(9.8355°N, 67.9249°W)
Time: 21:58:00
(UTC+00:00)

SPOT 1/Viking Rocket - Pass Details

Date: 23 May 2024
Orbit: 774 x 792 km, 98.3° (Epoch: 22 June)

Event Time Altitude Azimuth Distance (km) Brightness Sun altitude
Exits shadow 00:39:36 44° 197° (SSW) 1,072 4.1 -26.0°
Maximum altitude 00:41:05 64° 258° (WSW) 864 3.8 -26.4°
Drops below altitude 10° 00:46:11 10° 340° (NNW) 2,332 6.6 -27.5°
Sets 00:48:31 0° 343° (NNW) 3,257 7.4 -28.0°
